{"data":{"norad_id":54165,"epoch":"2026-05-25T02:30:42.828768Z","epoch_age_seconds":69553,"freshness":"FRESH","line1":"1 54165U 22141J   26145.10466237 -.00004867  00000+0 -28774-3 0  9995","line2":"2 54165  53.2129  31.0548 0001458  89.8480 270.2679 15.08858015197259","mean_motion":15.08858015,"eccentricity":0.0001458,"inclination_deg":53.2129,"raan_deg":31.0548,"arg_perigee_deg":89.848,"mean_anomaly_deg":270.2679,"bstar":-0.00028774,"rev_number":19725,"period_min":95.436415201731,"perigee_km":538.67970593162,"apogee_km":540.69694379635,"semimajor_km":6917.825324864,"source":"CELESTRAK","updated_at":"2026-05-25T13:38:17.660811Z"}}